Weather History for Big Rapids, MI

Change the Weather History Date:

Tuesday, January 1, 2013

  Actual Average Record
Temperature  
Mean Temperature 21 °F -  
Max Temperature 25 °F 28 °F 51 °F (2011)
Min Temperature 18 °F 13 °F -7 °F (1999)
Degree Days  
Heating Degree Days 44    
Moisture  
Dew Point 11 °F    
Average Humidity 65    
Maximum Humidity 74    
Minimum Humidity 51    
Precipitation  
Precipitation 0.00 in - - ()
Sea Level Pressure  
Sea Level Pressure 30.05 in    
Wind  
Wind Speed 6 mph (WNW)    
Max Wind Speed 13 mph    
Max Gust Speed 20 mph    
Visibility 10 miles    
Events Snow    
Averages and records for this station are not official NWS values.
T = Trace of Precipitation, MM = Missing Value Source: NWS Daily Summary

Daily Weather History Graph

Daily Weather History Graph

Search for Another Location

Airport:

Trip Planner

Search our weather history database for the weather conditions in past years. The results will help you decide how hot, cold, wet, or windy it might be!

Date:

Astronomy

Jan. 01, 2013 Rise Set
Actual Time 8:15 AM EST 5:15 PM EST
Civil Twilight 7:43 AM EST 5:48 PM EST
Nautical Twilight 7:06 AM EST 6:24 PM EST
Astronomical Twilight 6:32 AM EST 6:59 PM EST
Moon 9:55 PM EST (1/1) 10:19 AM EST (1/1)
Length of Visible Light 10h 05m
Length of Day
9h 00m
Waning Gibbous, 83% of the Moon is Illuminated
Jan 1
Waning Gibbous
Jan 4
Last Quarter
Jan 11
New
Jan 18
First Quarter
Jan 26
Full

Hourly Weather History & Observations

Time (EST) Temp. Windchill Dew Point Humidity Pressure Visibility Wind Dir Wind Speed Gust Speed Precip Events Conditions
12:14 AM 23.4 °F 15.2 °F 14.0 °F 67% 30.01 in 10.0 mi NNW 6.9 mph - N/A   Overcast
12:35 AM 23.0 °F 15.8 °F 14.0 °F 68% 30.01 in 10.0 mi NNW 5.8 mph - N/A   Overcast
12:54 AM 22.8 °F 12.9 °F 14.2 °F 69% 30.02 in 10.0 mi NNW 9.2 mph - N/A   Overcast
1:14 AM 22.1 °F 12.8 °F 12.7 °F 67% 30.03 in 10.0 mi NNW 8.1 mph - N/A Snow Light Snow
1:34 AM 21.9 °F 13.4 °F 13.1 °F 69% 30.04 in 10.0 mi NNW 6.9 mph - N/A   Overcast
1:55 AM 21.6 °F 11.3 °F 11.5 °F 65% 30.04 in 10.0 mi NNW 9.2 mph - N/A   Overcast
2:14 AM 21.2 °F 11.7 °F 10.8 °F 64% 30.04 in 10.0 mi North 8.1 mph - N/A   Overcast
2:34 AM 21.0 °F 14.6 °F 10.8 °F 65% 30.04 in 10.0 mi North 4.6 mph - N/A   Overcast
2:55 AM 20.5 °F 12.8 °F 10.9 °F 67% 30.04 in 10.0 mi North 5.8 mph - N/A   Overcast
3:14 AM 20.5 °F 12.8 °F 10.6 °F 66% 30.05 in 10.0 mi North 5.8 mph - N/A Snow Light Snow
3:34 AM 20.3 °F 11.5 °F 9.9 °F 64% 30.06 in 10.0 mi North 6.9 mph - N/A   Overcast
3:55 AM 20.3 °F 15.4 °F 9.0 °F 62% 30.05 in 10.0 mi NNW 3.5 mph - N/A   Overcast
4:14 AM 20.3 °F - 9.1 °F 62% 30.06 in 10.0 mi Calm Calm - N/A   Overcast
4:34 AM 20.3 °F - 9.0 °F 62% 30.06 in 10.0 mi Calm Calm - N/A   Overcast
5:14 AM 20.1 °F - 10.0 °F 65% 30.05 in 10.0 mi Calm Calm - N/A   Overcast
5:34 AM 19.4 °F 14.3 °F 10.6 °F 69% 30.06 in 10.0 mi West 3.5 mph - N/A   Overcast
6:14 AM 19.8 °F - 10.2 °F 67% 30.06 in 10.0 mi Calm Calm - N/A   Overcast
6:34 AM 19.8 °F - 10.6 °F 68% 30.06 in 10.0 mi Calm Calm - N/A   Overcast
6:55 AM 19.9 °F - 11.1 °F 69% 30.07 in 10.0 mi Calm Calm - N/A   Overcast
7:14 AM 19.9 °F - 11.3 °F 69% 30.08 in 10.0 mi Calm Calm - N/A   Overcast
7:34 AM 19.8 °F - 11.5 °F 70% 30.08 in 10.0 mi Calm Calm - N/A Snow Light Snow
7:54 AM 19.9 °F 14.9 °F 11.3 °F 69% 30.08 in 10.0 mi West 3.5 mph - N/A   Overcast
8:14 AM 19.9 °F 13.4 °F 11.3 °F 69% 30.08 in 10.0 mi West 4.6 mph - N/A   Overcast
8:35 AM 19.9 °F 14.9 °F 12.0 °F 71% 30.09 in 10.0 mi West 3.5 mph - N/A Snow Light Snow
8:54 AM 20.1 °F 13.6 °F 12.4 °F 72% 30.09 in 10.0 mi WNW 4.6 mph - N/A   Overcast
9:14 AM 20.3 °F 13.8 °F 12.6 °F 72% 30.11 in 10.0 mi West 4.6 mph - N/A   Overcast
9:35 AM 20.7 °F 15.8 °F 12.9 °F 72% 30.11 in 10.0 mi West 3.5 mph - N/A   Overcast
9:54 AM 21.0 °F 12.4 °F 13.1 °F 71% 30.10 in 10.0 mi WNW 6.9 mph - N/A   Overcast
10:14 AM 21.2 °F 12.6 °F 14.0 °F 74% 30.11 in 10.0 mi WNW 6.9 mph - N/A Snow Light Snow
10:34 AM 21.7 °F 14.3 °F 14.4 °F 73% 30.12 in 1.5 mi WNW 5.8 mph - N/A Snow Light Snow
10:54 AM 22.1 °F 12.8 °F 14.0 °F 71% 30.12 in 10.0 mi WNW 8.1 mph - N/A   Overcast
11:15 AM 22.6 °F 12.6 °F 14.0 °F 69% 30.11 in 10.0 mi NW 9.2 mph - N/A   Overcast
11:34 AM 23.0 °F 17.0 °F 13.3 °F 66% 30.09 in 10.0 mi WNW 4.6 mph - N/A   Overcast
11:54 AM 23.0 °F 13.9 °F 13.3 °F 66% 30.08 in 10.0 mi NNW 8.1 mph - N/A Snow Light Snow
12:14 PM 22.8 °F 13.6 °F 11.7 °F 62% 30.07 in 10.0 mi NNW 8.1 mph - N/A   Overcast
12:34 PM 23.4 °F 13.5 °F 10.2 °F 57% 30.05 in 10.0 mi NW 9.2 mph - N/A   Overcast
12:55 PM 23.5 °F 16.4 °F 9.9 °F 56% 30.04 in 10.0 mi NW 5.8 mph - N/A   Overcast
1:14 PM 23.4 °F 15.2 °F 9.1 °F 55% 30.04 in 10.0 mi NNW 6.9 mph - N/A   Overcast
1:34 PM 23.5 °F 17.6 °F 9.1 °F 54% 30.04 in 10.0 mi NW 4.6 mph - N/A   Overcast
1:55 PM 23.7 °F 16.6 °F 8.6 °F 53% 30.04 in 10.0 mi WNW 5.8 mph - N/A   Mostly Cloudy
2:14 PM 23.7 °F 14.7 °F 9.1 °F 54% 30.03 in 10.0 mi NW 8.1 mph - N/A   Mostly Cloudy
2:34 PM 23.9 °F 18.0 °F 8.8 °F 53% 30.03 in 10.0 mi NW 4.6 mph - N/A   Mostly Cloudy
2:55 PM 24.6 °F 17.7 °F 9.0 °F 51% 30.03 in 10.0 mi WNW 5.8 mph - N/A   Mostly Cloudy
3:14 PM 24.4 °F 15.6 °F 9.9 °F 54% 30.04 in 10.0 mi WNW 8.1 mph - N/A   Overcast
3:34 PM 24.4 °F 14.9 °F 9.3 °F 53% 30.04 in 10.0 mi WSW 9.2 mph - N/A   Overcast
3:55 PM 23.5 °F 12.4 °F 9.9 °F 56% 30.04 in 10.0 mi WSW 11.5 mph - N/A   Overcast
4:14 PM 23.0 °F 14.7 °F 11.5 °F 61% 30.04 in 10.0 mi West 6.9 mph - N/A Snow Light Snow
4:34 PM 23.0 °F 14.7 °F 11.3 °F 61% 30.04 in 10.0 mi West 6.9 mph - N/A Snow Light Snow
4:54 PM 22.8 °F 14.5 °F 10.9 °F 60% 30.04 in 10.0 mi West 6.9 mph - N/A   Overcast
5:14 PM 22.5 °F 14.1 °F 10.2 °F 59% 30.04 in 10.0 mi WSW 6.9 mph - N/A Snow Light Snow
5:34 PM 22.1 °F 14.7 °F 10.8 °F 62% 30.04 in 10.0 mi West 5.8 mph - N/A   Overcast
6:14 PM 20.8 °F 9.7 °F 10.6 °F 65% 30.04 in 10.0 mi WNW 10.4 mph - N/A Snow Light Snow
6:34 PM 19.9 °F 7.3 °F 9.1 °F 63% 30.05 in 10.0 mi West 12.7 mph - N/A   Overcast
6:54 PM 19.4 °F 7.2 °F 9.5 °F 65% 30.05 in 10.0 mi WNW 11.5 mph 17.3 mph N/A Snow Light Snow
7:14 PM 19.2 °F 10.2 °F 9.3 °F 65% 30.05 in 10.0 mi West 6.9 mph - N/A Snow Light Snow
7:35 PM 19.0 °F 9.0 °F 10.0 °F 68% 30.05 in 7.0 mi West 8.1 mph - N/A Snow Light Snow
7:54 PM 19.0 °F 6.8 °F 10.2 °F 69% 30.04 in 10.0 mi West 11.5 mph - N/A Snow Light Snow
8:14 PM 18.9 °F 6.5 °F 10.0 °F 69% 30.05 in 10.0 mi West 11.5 mph - N/A Snow Light Snow
8:35 PM 18.5 °F 11.7 °F 10.0 °F 70% 30.04 in 7.0 mi West 4.6 mph - N/A Snow Light Snow
8:54 PM 18.5 °F 8.4 °F 9.9 °F 69% 30.04 in 10.0 mi West 8.1 mph 19.6 mph N/A Snow Light Snow
9:14 PM 18.9 °F 9.8 °F 10.2 °F 69% 30.04 in 3.0 mi West 6.9 mph - N/A   Haze
9:35 PM 19.0 °F 10.0 °F 10.4 °F 69% 30.04 in 10.0 mi West 6.9 mph - N/A Snow Light Snow
9:54 PM 19.0 °F 6.8 °F 10.2 °F 69% 30.04 in 10.0 mi West 11.5 mph - N/A   Overcast
10:14 PM 19.2 °F 10.2 °F 10.4 °F 69% 30.04 in 10.0 mi West 6.9 mph - N/A Snow Light Snow
10:35 PM 19.2 °F 9.3 °F 10.4 °F 69% 30.03 in 10.0 mi West 8.1 mph - N/A Snow Light Snow
10:54 PM 19.4 °F 7.9 °F 10.8 °F 69% 30.03 in 10.0 mi WNW 10.4 mph - N/A Snow Light Snow
11:14 PM 19.4 °F 6.6 °F 10.9 °F 70% 30.03 in 10.0 mi WNW 12.7 mph - N/A   Overcast
11:35 PM 19.2 °F 7.7 °F 10.4 °F 69% 30.03 in 10.0 mi WNW 10.4 mph - N/A   Overcast
11:54 PM 19.2 °F 8.4 °F 10.4 °F 69% 30.03 in 10.0 mi WNW 9.2 mph - N/A Snow Light Snow